Regional Weather Roundup
Issued by NWS San Diego, CA

Home | Current Version | Previous Version | Text Only | Print | Product List | Glossary On
Versions: 1 2 3 4 5 6 7 8 9 10 11 12 13 14 15 16 17 18 19 20 21 22 23 24 25 26 27 28 29 30 31 32 33 34 35 36 37 38 39 40 41 42 43 44 45 46 47 48 49 50
000
ASUS46 KSGX 240110
RWRSGX

SAN DIEGO HOURLY WEATHER ROUNDUP
NATIONAL WEATHER SERVICE SAN DIEGO CA
600 PM PDT WED APR 23 2014

NOTE: "FAIR" INDICATES FEW OR NO CLOUDS BELOW 12,000 FEET WITH NO
SIGNIFICANT WEATHER AND/OR OBSTRUCTIONS TO VISIBILITY.

CAZ042-043-060-061-PZZ750-775-240200-

GREATER SAN DIEGO AREA

CITY           SKY/WX    TMP DP  RH WIND       PRES   REMARKS
LINDBERGH FLD  PTSUNNY   68  51  54 W9        29.93S
NATIONAL CITY    N/A     66  52  59 W3        29.93S
CHULA VISTA      N/A     70  58  66 W10       29.85S
IMPERIAL BEACH PTSUNNY   66  56  70 W10       29.93S
BROWN FIELD    SUNNY     65  52  62 W12       29.91F
MIRAMAR MCAS   PTSUNNY   66  46  48 W10       29.92S
MONTGOMERY FLD SUNNY     66  47  50 NW8       29.92S

$$

NORTH SAN DIEGO COUNTY

CITY           SKY/WX    TMP DP  RH WIND       PRES   REMARKS
CAMP PENDLETON PTSUNNY   66  52  60 W8        29.91R
RED BEACH      FAIR      67  51  56 W10       29.91S
OCEANSIDE AP   MOSUNNY   65  53  65 W10       29.90S
VISTA            N/A     65  53  63 W1        29.90R
CARLSBAD       SUNNY     64  53  67 W8        29.91S
DEL MAR          N/A     65  56  72 CALM      29.94R
LA JOLLA SCRIP   N/A     64  58  79 NW2       29.91S
FALLBROOK        N/A     68  52  56 S8        29.89S
ESCONDIDO        N/A     67  50  53 W9        29.92S
SAN MARCOS       N/A     65  49  57 W12       29.90R
POWAY            N/A     69  51  53 CALM      29.93R
R. PENASQUITOS   N/A     66  50  55 W10       29.93R

$$

EAST SAN DIEGO COUNTY

CITY           SKY/WX    TMP DP  RH WIND       PRES   REMARKS
RAMONA         SUNNY     66  48  52 W12       29.91S
GILLESPIE FLD  FAIR      70  45  40 W13       29.92S
LA MESA          N/A     67  49  51 W3        29.86R
JAMUL            N/A     69  52  54 W6        29.90S
DESCANSO N       N/A     64  47  53 W1        29.82S
MT. LAGUNA OBS   N/A     59  39  48 CALM      29.60
CAMPO            N/A     68  46  45 SW13      29.89R

$$

ORANGE COUNTY AND THE LOS ANGELES BASIN

CITY           SKY/WX    TMP DP  RH WIND       PRES   REMARKS
JOHN WAYNE AP  MOSUNNY   69  41  36 SW9       29.91S
LAGUNA BEACH     N/A     68  54  60 SE3       29.90R
LAKE FOREST FR   N/A     69  44  40 W1        29.82R
SANTA ANA        N/A     73  49  42 CALM      29.86S
LOS ALAMITOS   MOSUNNY   73  40  30 W9        29.90S
FULLERTON      MOSUNNY   73  39  29 SW8       29.89S
LONG BEACH     SUNNY     70  34  26 W14       29.90S
L.A. AP        MOSUNNY   66  47  50 W13       29.92S
L.A. DOWNTOWN  SUNNY     69  38  32 W5        29.91R

$$

THE INLAND EMPIRE

CITY           SKY/WX    TMP DP  RH WIND       PRES   REMARKS
CORONA         MOSUNNY   71  48  43 W12         N/A
CHINO          PTSUNNY   72  46  39 SW13      29.90S
ONTARIO        PTSUNNY   73  44  35 W13       29.89S
SAN BERNARDINO PTSUNNY   73  41  31 SW9       29.89S
RIVERSIDE AP   MOSUNNY   73  45  36 W12G18    29.89R
RIV CYN CREST    N/A     73  55  54 NW5       29.87S
MORENO VALLEY    N/A     73  51  46 NW5         N/A
MARCH ARB      MOSUNNY   72  44  36 NW13      29.90S
HORSETHIEF CYN   N/A     72  43  34 N9        29.90R
PERRIS           N/A     72  47  40 W7          N/A
MENIFEE          N/A     76  52  42 W2        29.93S
HEMET EAST       N/A     73  36  25 CALM      29.89S
FRENCH VALLEY  NOT AVBL
TEMECULA         N/A     71  51  49 SW9       29.84R

$$

SAN BERNARDINO AND RIVERSIDE COUNTY MOUNTAINS

CITY           SKY/WX    TMP DP  RH WIND       PRES   REMARKS
BIG BEAR AP    SUNNY     55  -4   8 E7        30.06R
BIG BEAR SHEA    N/A     55   8  15 NE5       30.03R
ANGELUS OAKS     N/A     56  38  50 CALM      29.86R
PINE COVE        N/A     53  34  47 N3        29.94S

$$

SOUTHERN DESERT INCLUDING THE COACHELLA VALLEY

CITY           SKY/WX    TMP DP  RH WIND       PRES   REMARKS
PALM SPRINGS   PTSUNNY   85  16   7 NW7       29.80F
THOUSAND PALMS   N/A     86  20   9 W7        29.77S
PALM DESERT      N/A     88  25  10 CALM      26.30S
THERMAL        SUNNY     87  18   8 CALM      29.76S
BLYTHE         SUNNY     85  13   7 N10       29.78F
IMPERIAL AP    MOSUNNY   86  16   7 N3        29.78F
EL CENTRO NAS  PTSUNNY   86  15   7 NE5       29.79F
YUMA AZ        MOSUNNY   86   9   5 VRB3      29.79
MEXICALI       PTSUNNY   84  19   9 W8        29.80

$$

UPPER DESERT

CITY           SKY/WX    TMP DP  RH WIND       PRES   REMARKS
VICTORVILLE AP MOSUNNY   72  14  11 W6        29.93S
HESPERIA         N/A     71  21  15 CALM      30.02S
APPLE VALLEY     N/A     72  15  11 CALM      29.97R
GRAY BUTTE AP  NOT AVBL
PALMDALE       SUNNY     69  24  18 NW21      29.95R
LANCASTER      MOSUNNY   67  25  20 W23G30    29.94R
EDWARDS AFB    PTSUNNY   73  27  18 NW20      29.90F
DAGGETT        SUNNY     76   9   7 SE3       29.88S
29 PALMS N     MOSUNNY   77  14   9 N3        29.94S
NEEDLES        SUNNY     84  10   6 NE12      29.82S

$$

REGIONAL REPORTS

CITY           SKY/WX    TMP DP  RH WIND       PRES   REMARKS
SANTA BARBARA  SUNNY     69  44  40 SE6       29.88S
SANDBERG       MOSUNNY   53  30  41 N22G32    30.03S
MT. WILSON       N/A     59  34  38 MISG        N/A
LAS VEGAS NV   MOSUNNY   75  14  10 S9        29.83F
PHOENIX AZ     MOSUNNY   85  10   6 S10       29.76S
TIJUANA        MOSUNNY   66  46  48 NW13      29.95S
ENSENADA NW      N/A     65  32  29 W3        29.91S

$$

OFFSHORE ISLANDS

CITY           SKY/WX    TMP DP  RH WIND       PRES   REMARKS
CATALINA ARPT  SUNNY     61  35  37 W12       29.95S
SAN CLEMENTE I MOSUNNY   64  50  60 W15       29.95S
SAN NICOLAS IS SUNNY    N/A N/A N/A NW32G38   29.94S

$$

MARINE AND OFFSHORE BUOY REPORTS

STATION/POSITION SKY/WX   TEMP    WIND        PRES    SWELL
                          AIR SEA DIR/SP/G            HT/PER/DIR
                          (F)     (DEG/KT/KT) (MB)    (FT/S/D)
S CLEMENTE BASIN           61 63  300/ 16/ 17 1013.2F   7/290/10
SAN NICOLAS IS.               58                N/A     5/300/13
SO. S. ROSA ISLA           55 56  320/ 25/ 29 1014.3F   5/12
W. S. BARBARA CH           54 53  330/ 27/ 31 1014.1F   7/310/12
S. MONICA BASIN            61 62  250/  8/ 10 1012.4F   5/260/ 6
S PEDRO CHANNEL               62                N/A     2/260/11
DANA POINT                    63                N/A     3/280/13
CMP PENDLETON NS              63                N/A     2/200/15
OCEANSIDE OFFSHR              64                N/A     2/200/14
TORREY PINES OTR              64                N/A     3/270/11
LA JOLLA 1                 65 63  300/  5/  6 1013.3S
MISSION BAY BUOY              63                N/A     3/280/13
SAN DIEGO BAY                 67              1013.4S
POINT LOMA SOUTH              64                N/A     3/280/12

$$




USA.gov is the U.S. government's official web portal to all federal, state and local government web resources and services.